Hourly Data Report for September 03, 2017

All times are specified in Local Standard Time (LST). Add 1 hour to adjust for Daylight Saving Time where and when it is observed.

NORTH CAPE
PRINCE EDWARD ISLAND

47°03'29.000" N
63°59'55.000" W
7.60 m
8300516
71987
WNE

Download Data

Hourly Data (September 2017)
Hourly Data Report for September 3, 2017
Temp Definition
°C
Dew Point Temp Definition
°C
Rel Hum Definition
%
Wind Dir Definition
10's deg

Wind Spd Definition
km/h
Visibility Definition
km
Stn Press Definition
kPa
Hmdx Definition


Wind Chill Definition


Weather Definition


TIME
00:00 13.2 10.0 81 13 9   102.16     LegendNANA
01:00 13.1 10.3 83 14 9   102.18     LegendNANA
02:00 12.9 10.1 83 15 10   102.17     LegendNANA
03:00 12.2 9.8 85 16 8   102.16     LegendNANA
04:00 11.8 9.8 87 18 12   102.19     LegendNANA
05:00 11.4 9.2 87 17 9   102.22     LegendNANA
06:00 12.4 10.6 89 17 11   102.23     LegendNANA
07:00 14.6 12.1 86 14 12   102.25     LegendNANA
08:00 16.0 12.1 78 14 17   102.28     LegendNANA
09:00 17.0 12.7 76 14 15   102.29     LegendNANA
10:00 17.2 12.2 73 16 14   102.32     LegendNANA
11:00 17.2 12.9 76 14 20   102.25     LegendNANA
12:00 17.6 12.7 73 14 20   102.17     LegendNANA
13:00 17.4 13.4 78 14 21   102.09     LegendNANA
14:00 17.7 13.8 78 14 18   102.06     LegendNANA
15:00 17.4 13.5 78 13 21   102.00     LegendNANA
16:00 17.6 13.3 76 12 21   101.91     LegendNANA
17:00 17.6 13.1 75 12 22   101.85     LegendNANA
18:00 17.3 12.9 75 14 19   101.82     LegendNANA
19:00 16.3 11.5 73 16 12   101.74     LegendNANA
20:00 16.4 11.9 75 15 19   101.64     LegendNANA
21:00 15.8 11.1 74 17 16   101.55     LegendNANA
22:00 15.5 10.9 74 16 18   101.45     LegendNANA
23:00 15.4 11.3 76 15 26   101.32     LegendNANA

Notes on Data Quality.

Legend

  • E = Estimated
  • M = Missing
  • NA = Not Available
  • ‡ = Partner data that is not subject to review by the National Climate Archives
Date modified: